Weather observations for the past three days for
Asheville, Asheville Regional Airport
| Date | Time (edt) | Wind (mph) | Vis. (mi.) | Weather | Sky Cond. | Temperature (ºF) | Relative Humidity | Wind Chill (°F) | Heat Index (°F) | Pressure | Precipitation (in) | ||||||
|---|---|---|---|---|---|---|---|---|---|---|---|---|---|---|---|---|---|
| Air | Dwpt | 6 hour | altimeter (in) | sea level (mb) | 1 hr | 3 hr | 6 hr | ||||||||||
| Max. | Min. | ||||||||||||||||
| 04 | 21:54 | Calm | 10.00 | Fair | CLR | 78.1 | 72 | 82% | 80 | 30.1 | 1016.1 | ||||||
| 04 | 20:54 | S 5 | 10.00 | Fair | CLR | 79 | 71.1 | 77% | 82 | 30.09 | 1015.9 | ||||||
| 04 | 19:54 | Calm | 10.00 | Fair | CLR | 84 | 70 | 91 | 82.9 | 63% | 88 | 30.08 | 1015.3 | ||||
| 04 | 18:54 | S 5 | 10.00 | Fair | CLR | 86 | 69.1 | 57% | 90 | 30.06 | 1014.9 | ||||||
| 04 | 17:54 | S 7 | 10.00 | Fair | CLR | 88 | 68 | 52% | 92 | 30.07 | 1015.1 | ||||||
| 04 | 16:54 | SE 7 | 10.00 | Fair | CLR | 89.1 | 64 | 43% | 90 | 30.07 | 1015.2 | ||||||
| 04 | 15:54 | SE 9 | 10.00 | Partly Cloudy | FEW060 SCT080 | 87.1 | 66.9 | 51% | 90 | 30.09 | 1015.9 | ||||||
| 04 | 14:54 | Vrbl 5 | 10.00 | Overcast | BKN050 BKN070 OVC085 | 84 | 68 | 59% | 87 | 30.11 | 1016.6 | ||||||
| 04 | 13:54 | Calm | 10.00 | A Few Clouds | FEW050 FEW065 | 90 | 68 | 91 | 69.1 | 48% | 94 | 30.12 | 1016.6 | ||||
| 04 | 12:54 | N 8 G 17 | 10.00 | Fair | CLR | 89.1 | 68 | 50% | 93 | 30.14 | 1017.3 | ||||||
| 04 | 11:54 | N 8 G 17 | 10.00 | Fair | CLR | 87.1 | 69.1 | 55% | 91 | 30.15 | 1017.7 | ||||||
| 04 | 10:54 | Vrbl 5 | 10.00 | Fair | CLR | 82.9 | 69.1 | 63% | 87 | 30.15 | 1018.1 | ||||||
| 04 | 09:54 | Vrbl 5 | 10.00 | Fair | CLR | 78.1 | 69.1 | 74% | 80 | 30.16 | 1018.2 | ||||||
| 04 | 08:54 | Vrbl 5 | 10.00 | Fair | CLR | 73 | 66.9 | 81% | 30.16 | 1018.4 | |||||||
| 04 | 07:54 | Calm | 10.00 | Fair | CLR | 69.1 | 66.9 | 71.1 | 66.9 | 93% | 30.15 | 1018.1 | |||||
| 04 | 06:54 | Calm | 10.00 | Fair | CLR | 66.9 | 64.9 | 93% | 30.14 | 1017.4 | |||||||
| 04 | 05:54 | Calm | 10.00 | Fair | CLR | 68 | 66 | 93% | 30.13 | 1017.1 | |||||||
| 04 | 03:54 | Calm | 10.00 | Fair | CLR | 69.1 | 68 | 96% | 30.12 | 1016.9 | |||||||
| 04 | 02:54 | Calm | 10.00 | Fair | CLR | 70 | 68 | 93% | 30.12 | 1016.7 | |||||||
| 04 | 01:54 | Calm | 10.00 | Fair | CLR | 70 | 68 | 82.9 | 70 | 93% | 30.15 | 1017.6 | |||||
| 04 | 00:54 | SW 3 | 10.00 | Fair | CLR | 72 | 68 | 87% | 30.16 | 1017.9 | |||||||
| 03 | 23:54 | Calm | 10.00 | Fair | CLR | 73.9 | 69.1 | 85% | 30.16 | 1018.0 | |||||||
| 03 | 22:54 | S 3 | 10.00 | Fair | CLR | 75 | 69.1 | 82% | 75 | 30.17 | 1018.6 | ||||||
| 03 | 21:54 | Calm | 10.00 | Fair | CLR | 77 | 70 | 79% | 79 | 30.17 | 1018.4 | ||||||
| 03 | 20:54 | SW 3 | 10.00 | Fair | CLR | 77 | 70 | 79% | 79 | 30.14 | 1017.7 | ||||||
| 03 | 18:54 | E 3 | 10.00 | Fair | CLR | 88 | 64 | 45% | 89 | 30.1 | 1016.3 | ||||||
| 03 | 17:54 | SE 7 | 10.00 | Fair | CLR | 89.1 | 66 | 47% | 92 | 30.11 | 1016.5 | ||||||
| 03 | 16:54 | Vrbl 5 | 10.00 | Fair | CLR | 89.1 | 66.9 | 48% | 92 | 30.11 | 1016.6 | ||||||
| 03 | 15:54 | E 5 | 10.00 | Fair | CLR | 89.1 | 64 | 43% | 90 | 30.13 | 1017.0 | ||||||
| 03 | 14:54 | Vrbl 3 | 10.00 | Partly Cloudy | FEW050 SCT070 | 89.1 | 66.9 | 48% | 92 | 30.14 | 1017.4 | ||||||
| 03 | 13:54 | SE 5 | 10.00 | A Few Clouds | FEW050 | 89.1 | 66 | 91 | 68 | 47% | 92 | 30.15 | 1017.9 | ||||
| 03 | 12:54 | Vrbl 5 | 7.00 | A Few Clouds | FEW050 | 89.1 | 66.9 | 48% | 92 | 30.17 | 1018.5 | ||||||
| 03 | 11:54 | Vrbl 3 | 10.00 | Fair | CLR | 87.1 | 69.1 | 55% | 91 | 30.19 | 1019.0 | ||||||
| 03 | 10:54 | NW 3 | 10.00 | Fair | CLR | 82 | 68 | 63% | 85 | 30.19 | 1019.1 | ||||||
| 03 | 09:54 | NW 3 | 10.00 | Fair | CLR | 78.1 | 68 | 71% | 80 | 30.19 | 1019.4 | ||||||
| 03 | 08:54 | NW 5 | 10.00 | Fair | CLR | 73 | 66.9 | 81% | 30.2 | 1019.7 | |||||||
| 03 | 07:54 | Calm | 10.00 | Fair | CLR | 68 | 66 | 71.1 | 66 | 93% | 30.2 | 1019.7 | |||||
| 03 | 06:54 | Calm | 10.00 | Fair | CLR | 66 | 64.9 | 96% | 30.17 | 1018.7 | |||||||
| 03 | 05:54 | Calm | 10.00 | Fair | CLR | 68 | 66 | 93% | 30.17 | 1018.3 | |||||||
| 03 | 03:54 | Calm | 10.00 | Fair | CLR | 70 | 66.9 | 90% | 30.16 | 1017.8 | |||||||
| 03 | 02:54 | Calm | 10.00 | Fair | CLR | 70 | 66.9 | 90% | 30.15 | 1017.7 | |||||||
| 03 | 01:54 | Calm | 10.00 | Fair | CLR | 71.1 | 68 | 84 | 71.1 | 90% | 30.17 | 1018.5 | |||||
| 03 | 00:54 | Calm | 10.00 | Fair | CLR | 73 | 68 | 84% | 30.18 | 1018.7 | |||||||
| 02 | 23:54 | Calm | 10.00 | Overcast | OVC055 | 73 | 68 | 84% | 30.18 | 1019.1 | |||||||
| 02 | 22:54 | S 3 | 10.00 | A Few Clouds | FEW055 | 75 | 68 | 79% | 76 | 30.19 | 1019.3 | ||||||
| 02 | 21:54 | SW 3 | 10.00 | Fair | CLR | 75.9 | 68 | 77% | 77 | 30.18 | 1019.1 | ||||||
| 02 | 20:54 | SW 3 | 10.00 | Fair | CLR | 79 | 69.1 | 72% | 82 | 30.16 | 1018.4 | ||||||
| 02 | 19:54 | S 5 | 10.00 | Fair | CLR | 84 | 69.1 | 91.9 | 84 | 61% | 88 | 30.14 | 1017.8 | ||||
| 02 | 18:54 | SE 5 | 10.00 | Mostly Cloudy | BKN065 | 89.1 | 64.9 | 45% | 91 | 30.14 | 1017.6 | ||||||
| 02 | 17:54 | Calm | 10.00 | Mostly Cloudy | BKN070 | 91 | 62.1 | 38% | 92 | 30.14 | 1017.7 | ||||||
| 02 | 16:54 | Calm | 10.00 | Fair | CLR | 91.9 | 59 | 33% | 91 | 30.15 | 1017.5 | ||||||
| 02 | 15:54 | SW 5 | 10.00 | Fair | CLR | 91 | 62.1 | 38% | 92 | 30.15 | 1017.9 | ||||||
| 02 | 14:54 | NW 7 | 10.00 | Fair | CLR | 90 | 62.1 | 39% | 90 | 30.18 | 1018.7 | ||||||
| 02 | 13:54 | Vrbl 7 | 10.00 | Fair | CLR | 88 | 64 | 89.1 | 68 | 45% | 89 | 30.19 | 1019.4 | ||||
| 02 | 12:54 | Vrbl 3 | 10.00 | Fair | CLR | 87.1 | 63 | 45% | 88 | 30.21 | 1020.0 | ||||||
| 02 | 11:54 | Vrbl 5 | 10.00 | Fair | CLR | 84.9 | 68 | 57% | 88 | 30.23 | 1020.8 | ||||||
| 02 | 10:54 | N 3 | 10.00 | Fair | CLR | 82 | 66.9 | 60% | 85 | 30.23 | 1020.7 | ||||||
| 02 | 09:54 | NW 6 | 10.00 | Fair | CLR | 77 | 66.9 | 71% | 79 | 30.23 | 1020.8 | ||||||
| 02 | 08:54 | NW 3 | 10.00 | Fair | CLR | 72 | 66 | 82% | 30.23 | 1020.9 | |||||||
| 02 | 07:54 | Calm | 10.00 | Fair | CLR | 68 | 64.9 | 71.1 | 66 | 90% | 30.23 | 1020.7 | |||||
| 02 | 06:54 | W 5 | 10.00 | Fair | CLR | 66.9 | 64.9 | 93% | 30.22 | 1020.4 | |||||||
| 02 | 05:54 | W 3 | 10.00 | Fair | CLR | 66.9 | 64.9 | 93% | 30.21 | 1019.9 | |||||||
| 02 | 04:54 | NW 5 | 10.00 | Fair | CLR | 69.1 | 66 | 90% | 30.19 | 1019.2 | |||||||
| 02 | 03:54 | NW 5 | 10.00 | Fair | CLR | 69.1 | 66.9 | 93% | 30.19 | 1019.1 | |||||||
| 02 | 02:54 | NW 5 | 10.00 | Fair | CLR | 70 | 66.9 | 90% | 30.19 | 1019.4 | |||||||
| 02 | 01:54 | Calm | 10.00 | Fair | CLR | 70 | 66.9 | 82.9 | 69.1 | 90% | 30.2 | 1019.6 | |||||
| 02 | 00:54 | Calm | 10.00 | Fair | CLR | 70 | 68 | 93% | 30.2 | 1019.6 | |||||||
| 01 | 23:54 | Calm | 10.00 | Fair | CLR | 73 | 68 | 84% | 30.19 | 1019.3 | |||||||
| 01 | 22:54 | Calm | 10.00 | Fair | CLR | 73 | 68 | 84% | 30.19 | 1019.2 | |||||||
| Date | Time (edt) | Wind (mph) | Vis. (mi.) | Weather | Sky Cond. | Air | Dwpt | Max. | Min. | Relative Humidity | Wind Chill (°F) | Heat Index (°F) | altimeter (in) | sea level (mb) | 1 hr | 3 hr | 6 hr |
| 6 hour | |||||||||||||||||
| Temperature (ºF) | Pressure | Precipitation (in) | |||||||||||||||